sat.trackr.live / text

‹ back to catalog

STARLINK-5000

NORAD 53935 · 2022-119BB

PAYLOAD ACTIVE UNKNOWN

§ Identity

Operator
Country
US
Launch date
2022-09-24
Launch site
AFETR
Launch vehicle
Mass (kg)
RCS (m²)

Purposes: comms

External: N2YO · Heavens-Above · Gunter

§ Orbital elements

Epoch: 2026-05-25T04:00:03.998880Z

Period
91.86 min
Inclination
53.2166°
Eccentricity
0.0000879
Mean motion
15.67652422 rev/d
Perigee alt
365.0 km
Apogee alt
366.2 km
Semi-major
6,743.8 km
B*
4.5349e-3
RAAN
289.5637°
Arg perigee
48.7445°
Mean anomaly
224.9567°
Rev number
584

§ Raw data

STARLINK-50001 53935U 22119BB  26145.16671295  .00538698  00000+0  45349-2 0  99902 53935  53.2166 289.5637 0000879  48.7445 224.9567 15.67652422  5848

JSON: /api/v1/satellites/53935 · /tle

For live sub-satellite position, see the globe view (requires WebGL).

§ Visibility from observer

Set your observer location to see the next 7 days of passes ≥ 10°. The values pass through the URL so the page stays shareable.

No JS? Fill the form by hand. The geolocation button needs JavaScript.